TimeEST,TemperatureF,Dew PointF,Humidity,Sea Level PressureIn,VisibilityMPH,Wind Direction,Wind SpeedMPH,Gust SpeedMPH,PrecipitationIn,Events,Conditions,WindDirDegrees,DateUTC
12:54 AM,25.0,6.1,45,30.06,-9999.0,Variable,3.5,-,N/A,,Unknown,0,2013-01-21 05:54:00
1:54 AM,25.0,5.0,43,30.07,-9999.0,Calm,Calm,-,N/A,,Unknown,0,2013-01-21 06:54:00
2:54 AM,23.0,7.0,50,30.08,-9999.0,Calm,Calm,-,N/A,,Unknown,0,2013-01-21 07:54:00
3:54 AM,21.9,8.1,55,30.08,-9999.0,Calm,Calm,-,N/A,,Unknown,0,2013-01-21 08:54:00
4:54 AM,23.0,8.1,53,30.08,-9999.0,Calm,Calm,-,N/A,,Unknown,0,2013-01-21 09:54:00
5:54 AM,21.9,9.0,58,30.08,-9999.0,Calm,Calm,-,N/A,,Unknown,0,2013-01-21 10:54:00
6:54 AM,23.0,9.0,55,30.08,-9999.0,Calm,Calm,-,N/A,,Unknown,0,2013-01-21 11:54:00
7:00 AM,-9999,-9999,N/A,-9999,-9999.0,North,-9999.0,-,N/A,,Unknown,0,2013-01-21 12:00:00
7:54 AM,23.0,9.0,55,30.09,-9999.0,Calm,Calm,-,0.02,,Unknown,0,2013-01-21 12:54:00
8:54 AM,24.1,9.0,53,30.09,-9999.0,Calm,Calm,-,N/A,,Unknown,0,2013-01-21 13:54:00
9:54 AM,25.0,9.0,51,30.09,-9999.0,SSW,4.6,-,N/A,,Unknown,200,2013-01-21 14:54:00
10:54 AM,26.1,8.1,47,30.06,-9999.0,South,4.6,-,N/A,,Unknown,190,2013-01-21 15:54:00
11:54 AM,27.0,9.0,47,30.01,-9999.0,SW,4.6,-,0.02,,Unknown,220,2013-01-21 16:54:00
12:54 PM,27.0,9.0,47,29.97,-9999.0,Variable,5.8,-,N/A,,Unknown,0,2013-01-21 17:54:00
1:54 PM,27.0,12.9,56,29.96,-9999.0,SW,8.1,-,N/A,,Unknown,230,2013-01-21 18:54:00
2:54 PM,26.1,16.0,66,29.94,-9999.0,South,4.6,-,N/A,,Unknown,180,2013-01-21 19:54:00
3:54 PM,26.1,17.1,69,29.92,-9999.0,South,3.5,-,N/A,,Unknown,180,2013-01-21 20:54:00
4:54 PM,26.1,16.0,66,29.91,-9999.0,Calm,Calm,-,N/A,,Unknown,0,2013-01-21 21:54:00
5:54 PM,26.1,16.0,66,29.91,-9999.0,Calm,Calm,-,N/A,,Unknown,0,2013-01-21 22:54:00
6:54 PM,26.1,17.1,69,29.91,-9999.0,Calm,Calm,-,N/A,,Unknown,0,2013-01-21 23:54:00
7:54 PM,25.0,18.0,75,29.91,-9999.0,Calm,Calm,-,N/A,,Unknown,0,2013-01-22 00:54:00
8:54 PM,23.0,17.1,78,29.88,-9999.0,Calm,Calm,-,N/A,,Unknown,0,2013-01-22 01:54:00
9:54 PM,23.0,17.1,78,29.88,-9999.0,SSW,3.5,-,0.02,,Unknown,200,2013-01-22 02:54:00
10:54 PM,23.0,12.9,65,29.87,-9999.0,Variable,3.5,-,N/A,,Unknown,0,2013-01-22 03:54:00